RH
22 23 24 22 18 14 13 12 11 10 12 13 10 11 11 10 12 11 9 12 16 21 23 23 24 24 24 22 22 27 30 32 33 34 38 44 50 54 57 57 59 62 62 64 67 69 72 74 76 78 79 80 79 80 72 47 30 26 26 28 28 28 30 29 29 29 29 30 31 32 35 40 40 38 41 48 59 70 80 77 64 63 66 68 69 66
19 21 20 18 14 13 13 12 12 11 12 14 12 11 12 12 13 10 9 12 14 19 22 22 23 23 23 22 21 24 27 29 30 32 37 43 47 51 54 55 58 61 61 63 67 70 72 74 76 78 78 78 77 76 68 49 35 29 26 27 28 28 29 29 28 29 29 29 29 30 35 48 53 41 36 45 53 64 74 66 60 67 66 64 68 67
19 18 15 14 13 12 13 12 13 12 12 14 12 11 12 10 11 11 11 13 14 17 19 20 23 22 21 21 20 21 24 27 29 30 36 42 46 49 52 54 57 60 61 62 67 69 70 72 75 78 78 77 75 70 61 47 38 35 29 26 27 28 29 29 28 28 28 28 28 30 33 46 61 55 45 52 56 58 69 66 59 66 69 64 65 67
20 16 12 12 11 12 13 13 14 14 13 14 11 11 12 10 11 12 12 14 15 15 17 19 21 21 20 21 20 19 22 26 29 30 33 39 44 46 50 53 56 59 62 63 66 68 69 71 74 78 79 77 75 72 63 50 41 38 33 27 25 27 28 28 28 27 28 28 28 30 30 34 56 64 49 47 51 47 59 72 67 62 66 67 65 66
16 12 11 11 11 12 14 15 15 14 13 12 10 10 11 11 12 13 12 14 15 14 15 17 21 22 20 21 21 18 21 25 27 29 31 36 41 44 47 51 55 58 61 63 65 67 68 70 73 77 80 78 76 74 67 58 49 42 38 31 25 24 26 26 27 27 27 29 28 29 30 28 39 49 37 31 38 38 45 65 74 64 60 67 68 67
13 11 13 12 12 14 14 13 12 12 12 11 11 10 9 11 13 14 14 16 17 16 14 15 24 27 20 20 21 18 20 23 25 27 30 34 40 44 46 49 54 56 61 63 64 67 68 69 73 77 80 78 75 74 68 62 55 46 41 37 31 25 24 25 25 26 26 27 27 27 29 29 29 32 30 26 30 38 43 55 71 69 57 60 65 64
14 11 13 14 13 15 14 12 10 11 12 11 10 10 10 10 12 17 17 16 18 18 13 12 21 24 20 19 20 18 20 22 24 26 28 33 39 44 45 48 52 54 59 62 63 65 67 69 72 76 80 78 73 73 70 66 60 49 42 40 38 32 27 24 24 25 26 26 26 26 26 27 28 26 27 26 26 37 46 50 66 74 59 52 60 62
17 15 15 15 15 14 13 12 10 10 12 11 8 8 10 9 11 16 18 17 16 14 14 13 17 22 21 19 17 18 20 21 24 27 27 31 38 43 45 45 50 53 56 60 63 64 65 68 71 73 78 77 73 73 72 70 65 53 43 40 41 40 34 28 24 23 24 25 25 25 26 26 26 26 25 26 24 30 39 40 52 69 63 51 54 58
17 20 18 17 16 14 12 11 10 10 11 10 8 9 11 9 9 11 14 16 15 16 19 17 17 24 23 18 16 18 21 21 24 27 26 29 35 42 43 43 47 52 55 58 61 63 65 67 69 71 75 76 73 72 73 74 71 59 46 42 43 43 42 37 31 27 24 24 24 23 26 25 25 26 25 27 27 26 30 29 33 51 58 54 54 53
16 19 17 17 17 14 12 11 10 10 11 9 9 12 13 11 9 8 10 13 16 21 24 19 17 24 24 18 16 19 21 20 22 24 24 26 32 38 41 41 44 49 54 56 58 61 64 66 68 69 73 75 73 71 75 77 75 66 51 44 44 44 46 43 39 35 31 29 27 25 25 25 24 25 25 30 31 28 29 29 26 34 45 54 58 53
14 16 18 17 16 15 12 11 12 11 11 10 10 12 14 14 11 10 9 11 18 25 24 18 15 19 22 18 16 17 19 18 20 21 21 23 28 34 38 39 41 47 52 54 56 59 62 64 67 69 71 74 74 73 77 79 77 72 56 45 45 45 47 47 44 42 39 37 36 33 31 29 27 26 25 28 30 28 30 32 30 29 35 46 55 55
13 15 17 17 17 17 15 14 13 11 11 12 11 12 16 17 15 16 15 14 21 25 20 16 15 17 21 19 14 14 15 16 17 17 19 21 24 30 34 35 37 43 49 54 55 56 61 65 67 69 70 74 76 75 76 78 77 73 60 46 45 47 48 49 48 46 45 43 42 42 41 39 36 34 29 26 28 29 31 34 35 32 31 36 45 54
13 14 15 16 16 17 18 17 16 13 13 13 12 14 18 20 24 27 24 21 24 22 16 14 15 18 20 17 14 13 12 14 15 14 16 19 22 28 32 34 36 39 45 51 54 56 60 65 67 68 71 74 77 76 76 78 77 73 61 48 45 49 51 52 53 52 51 50 48 47 47 47 46 43 37 31 31 34 34 35 38 37 33 33 38 47
13 13 13 14 15 16 18 18 18 17 15 15 14 17 20 21 31 37 30 25 25 21 16 13 15 18 17 13 13 13 12 13 14 14 14 16 19 25 29 31 34 37 41 47 52 55 58 63 67 67 70 74 76 76 75 76 77 75 65 52 46 49 52 56 58 57 57 57 55 54 52 52 51 48 44 40 40 43 42 40 40 39 36 34 36 42
16 17 15 13 14 16 17 16 16 15 14 15 12 14 18 17 26 34 28 25 25 21 17 16 17 20 18 14 11 11 11 12 14 14 14 15 17 21 25 27 30 33 38 44 49 53 57 62 66 66 68 73 76 76 75 76 77 77 68 54 47 50 54 57 59 58 59 60 59 58 57 55 53 50 48 48 49 50 47 43 42 41 39 37 36 39
18 18 15 15 14 15 17 15 14 14 15 15 11 13 17 14 17 23 23 21 21 20 20 19 19 17 14 14 12 10 10 10 12 14 13 14 15 18 21 23 26 30 33 40 47 51 55 59 64 66 67 70 74 75 75 75 74 73 67 56 47 48 53 56 58 58 58 59 59 58 57 56 55 55 56 58 57 54 49 44 42 41 40 39 38 39
23 19 15 18 18 14 16 15 13 15 16 14 14 16 15 12 13 19 22 20 20 25 24 19 20 17 14 15 12 11 11 10 10 12 11 12 13 16 18 20 23 27 29 36 43 48 52 56 61 64 64 68 72 72 71 69 65 62 61 56 49 47 51 54 56 58 58 58 59 58 58 59 60 62 63 64 60 55 50 45 43 45 43 40 40 40
27 24 18 18 19 16 16 18 14 13 15 15 17 16 13 12 14 18 24 23 23 28 25 18 19 18 18 18 13 10 11 10 9 10 10 10 11 13 15 18 22 24 27 32 40 46 50 54 58 61 62 65 66 63 62 62 60 59 58 54 48 45 47 51 53 56 57 57 58 59 59 60 63 64 64 66 63 58 55 50 47 50 47 41 40 42
27 29 22 16 18 18 17 20 19 16 15 15 15 13 14 18 20 21 26 28 27 27 24 19 17 15 17 16 13 11 10 9 9 9 9 8 9 10 12 15 20 23 24 30 37 43 47 51 55 58 59 61 61 60 61 62 62 62 58 51 47 45 44 47 52 54 55 56 57 58 59 59 61 63 64 67 67 63 60 57 54 53 49 42 42 44
26 31 28 17 16 18 18 20 22 20 16 15 16 15 14 17 20 21 23 26 27 27 25 22 18 16 15 12 11 12 11 10 10 9 9 8 8 9 10 12 17 20 22 25 31 38 44 48 51 54 55 55 59 63 65 67 66 63 58 51 48 50 47 45 48 52 53 55 56 57 58 59 60 62 64 66 68 66 63 60 57 55 51 47 45 46
26 32 33 23 17 21 23 21 20 19 17 17 19 20 18 17 17 18 21 21 23 26 26 25 23 18 13 11 10 11 11 10 11 10 9 9 8 8 9 10 14 19 20 20 25 32 39 45 47 49 52 52 55 62 65 65 65 64 63 57 52 53 51 46 45 48 50 52 54 56 57 57 58 60 62 64 66 67 65 61 58 56 56 55 52 49
28 33 35 27 22 24 22 16 15 16 16 17 18 18 18 18 19 23 25 21 19 23 24 24 25 19 12 11 10 9 10 9 8 9 9 9 9 8 8 11 13 17 19 19 21 25 32 41 44 46 49 51 52 58 61 62 63 64 65 63 60 58 57 55 51 46 46 49 51 52 54 55 56 58 60 62 64 66 66 63 59 57 58 59 56 52
32 38 39 33 27 24 20 16 17 18 18 20 19 17 16 17 19 24 26 21 19 22 21 20 24 20 12 11 11 9 10 8 7 9 8 8 8 8 9 11 12 15 20 20 19 20 27 38 43 44 48 51 51 55 59 59 61 62 62 63 64 60 57 59 59 51 45 46 48 49 51 53 55 57 58 60 63 65 66 63 60 59 59 59 57 53
36 40 43 40 31 26 24 19 18 19 19 21 21 17 17 17 17 19 22 22 22 22 21 24 27 21 13 13 13 11 10 9 9 9 9 8 8 8 9 10 12 17 22 21 18 20 27 36 42 44 47 51 51 54 58 59 59 61 62 62 62 60 58 61 66 64 53 44 44 47 49 51 54 56 56 58 62 65 68 68 66 62 57 57 61 57
41 42 47 49 42 34 29 23 21 22 20 21 20 18 18 18 18 20 23 26 28 24 21 25 26 20 15 14 14 12 11 10 9 9 10 10 9 9 11 12 13 19 24 22 20 24 28 34 41 44 48 53 53 53 56 58 59 60 60 60 59 61 63 64 68 71 64 51 45 46 48 49 53 56 55 56 63 68 70 74 75 68 57 54 62 62
43 46 54 62 54 39 34 35 33 30 27 24 19 17 21 21 21 24 26 29 32 29 25 25 24 18 15 17 17 15 11 9 9 10 9 10 11 11 15 19 20 25 32 31 28 29 30 34 42 47 50 53 53 53 56 58 59 58 58 59 59 59 63 66 67 72 72 64 55 50 46 47 52 57 56 54 62 71 74 75 79 76 62 52 56 61
44 46 51 61 60 47 47 52 44 36 36 32 23 21 23 22 22 25 28 31 30 29 29 27 23 20 17 17 17 14 14 16 19 21 22 22 22 21 22 24 22 24 32 35 33 33 34 38 45 50 52 54 53 52 55 58 57 56 58 59 59 59 63 66 68 72 74 71 65 55 46 45 48 53 55 54 60 71 77 76 77 79 72 56 51 58
46 48 44 49 53 46 45 48 40 35 38 35 30 28 25 24 25 26 30 31 29 32 33 27 25 25 19 16 20 25 31 36 38 39 39 40 39 38 38 35 27 21 24 30 34 35 37 41 48 54 54 53 53 52 54 57 56 55 58 59 59 60 62 66 68 72 74 72 69 59 48 46 48 48 52 54 56 64 74 78 77 80 80 64 52 55
44 44 37 37 43 39 35 36 34 34 36 33 32 32 27 27 27 28 30 26 26 35 34 27 29 28 19 18 30 41 45 44 45 48 48 48 48 48 49 44 35 26 23 25 32 38 41 44 50 57 56 52 52 53 53 56 55 56 58 60 60 59 61 66 69 72 74 72 67 57 49 50 50 47 49 53 54 55 63 72 74 76 78 66 53 53
43 41 34 33 38 37 33 32 31 32 34 32 32 31 28 27 26 27 30 25 25 32 29 27 31 29 27 35 42 47 48 45 46 50 51 53 55 55 54 49 43 41 38 33 32 35 40 46 51 55 53 50 52 53 53 55 56 57 58 59 61 60 60 66 69 71 73 69 61 54 51 52 51 47 47 50 52 52 54 61 64 65 67 61 53 52
41 40 34 35 42 42 36 33 32 32 33 34 34 30 26 28 26 25 27 28 28 28 26 30 32 26 35 50 49 46 49 47 46 51 53 57 61 61 60 57 54 57 57 53 47 40 38 41 48 55 52 46 47 51 53 54 55 56 57 59 61 61 61 65 69 69 68 66 62 58 53 50 48 47 47 47 49 51 51 55 58 58 59 58 56 54
40 39 35 37 46 45 37 37 35 30 30 32 33 31 28 26 26 31 38 40 38 37 35 34 31 28 42 56 51 44 45 44 46 53 57 63 69 71 70 68 67 67 65 64 65 59 50 40 40 51 53 43 42 49 52 55 57 57 57 59 61 61 61 65 69 68 65 65 66 60 51 47 46 46 46 46 48 49 50 52 56 57 57 58 57 56
41 43 39 39 48 47 38 37 35 32 38 37 31 30 29 25 33 51 59 53 49 51 48 41 38 45 57 60 54 49 46 46 52 60 66 73 78 79 78 76 75 74 71 69 69 69 63 49 38 43 51 47 44 47 49 52 56 55 56 58 61 61 61 64 70 69 65 65 65 56 48 46 46 46 46 46 46 47 49 51 53 55 56 57 58 58
44 47 43 40 50 53 44 41 45 48 50 41 30 27 22 23 45 66 63 53 52 55 55 53 54 60 65 61 57 56 53 52 60 70 74 77 78 77 78 78 78 79 79 76 72 70 69 59 42 36 45 49 45 44 47 50 53 54 55 59 62 62 62 65 72 72 66 61 58 52 47 46 45 46 47 46 47 47 48 49 51 53 56 57 58 58
44 46 44 45 51 50 45 52 65 64 51 40 39 39 28 25 45 62 59 55 57 58 58 59 60 62 65 63 59 58 56 55 64 73 73 71 74 73 72 75 78 80 82 81 77 74 74 67 48 33 39 48 46 45 49 52 54 56 57 59 62 64 64 68 74 74 66 58 53 49 46 45 45 46 47 47 48 49 48 49 51 53 55 58 58 57
44 42 43 47 52 52 52 62 71 64 53 52 58 58 51 46 51 61 68 68 64 62 64 65 64 64 66 64 60 59 58 56 64 74 72 69 75 76 73 75 80 84 87 85 81 79 77 71 53 34 34 44 46 46 49 52 54 56 56 57 61 64 67 70 74 74 68 58 51 45 43 43 45 46 48 49 49 49 49 50 51 52 53 57 61 61
42 41 44 48 53 55 57 60 60 56 59 74 80 73 68 67 64 67 79 80 66 60 65 68 69 70 68 65 62 60 59 57 60 69 72 72 77 81 80 83 87 91 93 88 82 80 75 65 53 38 35 43 46 45 47 51 53 54 53 55 60 64 68 71 71 69 63 53 46 43 42 43 44 45 47 49 49 50 50 50 50 51 52 54 60 67
39 39 46 52 53 55 60 67 69 61 61 76 84 74 67 69 67 66 77 84 71 60 62 66 70 73 71 68 65 61 62 61 57 61 71 76 81 85 87 89 92 95 96 87 80 78 71 59 50 41 41 47 46 44 48 52 53 54 54 56 60 65 69 70 68 62 54 47 43 42 42 43 43 45 47 48 49 49 50 51 50 50 51 51 55 64
39 38 49 58 57 57 65 75 75 67 67 77 79 72 68 71 71 70 79 87 76 63 63 65 68 73 75 72 69 64 63 64 60 63 73 80 83 86 89 92 95 97 98 87 77 77 73 62 51 44 45 50 48 45 51 54 53 55 57 58 61 66 70 69 62 53 45 42 42 42 42 43 43 45 47 48 49 50 50 51 51 49 50 51 51 57
46 49 60 66 60 56 65 73 66 58 67 77 73 71 74 76 78 84 90 90 76 65 68 69 69 76 79 77 74 71 72 75 74 74 78 81 83 86 90 96 98 98 99 90 78 77 76 66 56 49 48 51 49 48 53 55 55 57 59 61 64 67 66 60 50 44 43 43 44 44 43 44 44 46 48 50 51 52 53 53 53 53 52 51 52 54
59 63 67 66 56 53 64 73 63 56 67 71 65 70 82 85 89 96 95 87 75 68 70 71 73 79 80 78 76 76 78 82 81 81 82 81 82 86 91 98 100 99 101 96 85 81 78 69 60 53 49 50 51 53 55 55 56 59 62 63 63 60 57 52 46 45 47 46 45 46 44 44 45 46 49 51 52 54 56 55 56 56 54 54 58 58
70 71 70 64 57 54 61 69 67 66 73 73 63 68 82 92 99 98 89 81 75 70 70 73 77 80 79 78 79 78 79 81 80 82 85 83 82 83 87 95 100 99 101 98 88 82 78 69 61 53 49 52 55 55 56 56 57 62 62 57 52 49 53 56 51 46 46 45 46 47 45 45 46 47 50 52 52 54 57 56 59 62 60 61 68 69
79 77 73 69 67 63 63 73 82 81 78 73 69 73 82 92 99 94 81 73 70 70 73 75 78 81 81 81 81 81 82 83 81 82 85 82 79 80 83 91 98 100 101 99 94 87 80 76 72 59 50 54 58 54 56 60 62 61 55 47 45 50 57 59 51 45 45 45 45 47 46 46 47 49 51 53 53 55 57 58 63 70 70 69 75 81
90 87 83 84 87 83 78 83 89 86 77 72 75 82 88 93 96 92 82 73 68 70 75 79 82 85 85 85 84 83 86 87 83 84 87 81 78 80 83 88 97 100 99 100 100 92 83 82 85 73 57 56 60 59 60 65 63 56 51 48 51 56 60 58 52 48 46 45 46 48 49 48 49 51 52 54 55 57 59 60 65 74 76 71 72 80
93 89 89 92 91 90 89 87 81 75 74 77 82 87 91 92 93 92 86 78 71 70 74 80 87 91 89 88 87 85 87 86 82 84 88 83 78 79 79 84 95 100 100 100 100 95 86 82 84 81 70 63 63 63 66 70 67 59 57 57 53 53 60 62 57 51 47 46 48 50 50 50 51 52 54 56 57 58 60 61 64 71 74 73 73 80
86 81 88 91 87 87 88 81 72 68 73 83 89 90 91 92 91 91 89 84 78 74 72 76 85 92 94 93 91 87 86 86 85 86 89 86 77 72 73 80 91 99 100 100 100 99 95 87 81 83 84 78 73 71 72 74 74 66 61 60 55 55 63 64 56 50 49 48 49 50 51 53 53 53 55 57 58 59 60 62 65 67 68 74 81 86
80 78 86 90 88 90 85 75 70 70 73 84 91 89 87 89 90 92 92 89 87 82 76 75 81 89 93 93 92 89 86 86 87 85 86 86 77 69 71 78 86 97 102 100 100 100 99 95 89 87 88 86 83 82 80 80 82 77 66 59 58 60 65 64 56 50 49 48 50 51 53 54 54 55 57 58 59 61 60 59 64 67 64 68 79 85
84 81 87 89 88 88 80 72 72 71 71 83 92 88 84 86 89 91 91 91 91 86 78 74 77 85 90 90 92 92 88 86 85 81 83 88 79 68 70 75 80 93 102 99 99 101 100 99 97 92 89 88 87 89 89 87 90 87 73 60 58 60 61 61 57 52 50 53 55 55 56 57 57 58 61 62 61 65 69 68 68 71 68 66 73 82
84 83 87 86 82 78 75 75 78 76 74 80 85 85 86 88 90 91 91 91 91 87 80 76 77 84 90 92 92 93 89 85 81 76 82 91 81 64 64 69 74 88 101 100 99 101 100 100 100 97 95 93 89 90 91 86 82 80 70 62 60 58 57 57 57 55 57 63 67 67 66 64 62 63 69 75 73 71 76 80 80 80 79 76 75 78
83 87 87 83 80 81 83 85 88 89 86 83 82 86 91 92 91 92 93 92 92 91 88 83 82 87 94 95 92 92 91 83 73 71 81 89 79 62 60 66 69 82 98 101 96 96 97 97 99 100 99 98 94 92 91 86 80 76 73 72 69 64 61 61 59 61 67 73 77 78 74 71 73 75 75 82 84 75 69 75 82 83 85 88 86 83
84 89 89 88 88 86 86 87 91 93 90 86 86 89 92 92 92 94 96 94 93 93 90 86 86 90 95 93 89 92 94 81 67 68 77 80 73 61 60 67 70 77 93 101 96 94 95 94 94 97 97 97 99 98 95 93 92 88 86 86 82 76 75 75 70 71 78 83 84 84 78 71 74 77 74 79 87 82 69 69 76 79 81 85 87 85
Wind_Speed
16 11 11 12 13 15 16 16 15 10 4 7 10 10 11 10 9 13 13 8 8 10 13 16 16 15 15 13 12 15 18 18 19 19 19 20 22 23 24 25 26 27 27 27 29 31 31 31 30 30 30 31 32 32 34 36 37 37 38 38 38 37 36 34 32 30 28 26 25 24 22 20 18 18 17 15 13 11 11 13 13 13 12 12 10 10
14 12 13 15 15 14 14 16 16 14 9 7 8 8 9 10 9 10 12 10 9 10 10 14 16 16 16 14 13 15 16 17 19 19 19 22 23 24 25 25 25 24 23 25 28 31 31 31 31 30 31 33 34 35 36 39 38 38 38 39 39 39 38 36 34 32 30 28 27 25 23 19 17 18 17 15 14 12 11 13 13 12 13 13 12 11
11 12 15 16 14 13 12 14 16 16 13 9 8 8 8 9 9 9 10 9 8 8 10 13 13 13 14 14 14 15 15 16 19 20 21 23 24 24 25 25 25 24 24 27 30 32 33 32 32 31 32 33 35 37 39 41 40 39 39 40 40 40 39 38 35 33 32 30 28 26 24 20 15 15 17 14 14 13 12 12 12 12 12 13 13 12
9 11 15 15 13 14 13 11 14 14 11 11 9 9 8 8 9 9 10 11 10 9 10 13 12 11 12 14 15 16 17 17 18 21 22 23 24 25 25 25 26 27 27 29 30 32 33 33 33 33 32 33 35 37 40 42 42 41 41 41 41 41 40 39 37 35 33 31 29 27 25 23 17 15 17 17 15 15 14 13 13 13 13 13 13 12
11 8 11 15 13 14 14 12 13 12 9 12 13 11 10 9 10 9 5 6 9 11 12 12 10 9 12 14 14 15 17 17 18 20 21 22 24 23 22 24 26 28 28 30 31 32 34 34 34 34 33 33 35 37 40 42 43 43 42 42 42 42 41 40 39 37 35 33 31 29 27 26 23 21 21 20 18 17 16 14 14 13 13 13 13 12
14 9 7 12 14 13 15 14 14 12 9 11 15 15 15 11 10 11 7 4 7 10 12 13 11 8 12 16 15 13 14 16 17 18 21 22 22 21 21 23 25 27 28 30 31 32 34 34 34 34 34 34 35 37 39 41 42 43 43 43 42 42 42 41 40 38 37 35 34 32 30 29 27 26 24 22 20 18 17 15 14 14 14 14 14 13
11 12 9 10 13 15 16 15 14 14 10 9 11 15 19 16 11 11 10 9 8 8 10 14 13 10 11 16 18 16 15 17 17 17 19 22 21 21 23 23 25 27 27 29 30 32 33 34 35 35 36 36 36 36 37 38 40 43 44 44 43 43 42 42 41 40 39 38 36 34 32 30 29 28 26 23 21 19 17 16 15 15 15 15 15 14
10 14 13 12 14 14 14 13 14 15 12 9 8 11 17 19 16 13 11 10 8 8 9 11 12 10 10 13 16 19 19 18 18 17 18 20 22 24 24 24 25 27 29 29 30 32 34 35 37 37 37 37 35 33 34 36 38 42 44 44 44 43 43 43 42 41 40 39 38 36 34 32 31 29 27 25 23 21 20 18 17 16 16 15 16 15
11 16 16 14 14 12 11 11 13 16 13 10 7 6 11 16 18 17 12 10 9 10 10 11 11 10 10 11 11 15 20 20 19 19 18 19 23 25 24 25 26 28 29 30 31 33 35 36 37 37 36 35 34 33 34 35 37 40 43 44 44 43 43 44 43 42 41 39 38 37 35 34 33 30 29 26 24 24 23 21 20 18 17 16 16 16
9 14 17 16 13 11 12 11 12 14 14 12 9 6 8 12 15 15 12 10 10 11 13 13 14 11 9 11 11 12 16 18 17 17 17 20 24 25 25 25 26 27 28 29 31 33 35 36 36 35 34 34 34 33 33 33 34 38 43 44 43 43 43 44 44 43 42 40 39 38 37 36 34 33 31 29 27 26 25 23 21 21 20 17 16 16
11 10 13 14 12 12 14 13 13 14 13 12 11 9 9 10 10 11 10 9 10 12 14 16 17 13 11 10 12 12 13 14 14 14 15 19 23 25 25 25 26 26 27 29 29 30 32 33 32 32 33 34 34 32 32 33 35 38 42 44 43 42 43 43 43 43 42 41 41 40 38 37 36 34 33 32 30 29 26 24 22 22 21 19 18 17
16 12 9 10 12 14 14 14 14 14 13 12 11 9 9 8 8 8 9 10 11 12 12 16 18 17 14 10 10 12 14 16 16 15 16 18 21 24 24 24 25 26 26 27 28 28 29 30 31 32 33 34 34 34 34 34 36 38 42 44 43 42 42 42 42 42 42 41 41 40 39 38 37 35 35 34 32 31 28 26 24 23 23 22 20 19
14 14 12 12 14 15 13 12 12 12 13 12 10 10 9 8 8 8 9 10 11 11 11 14 17 16 14 11 12 14 14 14 16 17 18 18 20 23 24 23 24 25 27 27 27 28 29 32 33 35 35 35 36 37 36 36 36 39 43 45 44 43 42 41 41 41 41 41 41 40 40 39 37 36 36 34 33 32 30 28 26 25 25 24 23 22
9 12 16 16 14 16 16 12 10 11 12 13 12 10 10 9 9 10 10 9 10 11 12 15 14 13 12 12 15 18 14 11 13 18 21 20 20 22 23 24 24 25 27 27 27 29 31 34 36 36 37 37 37 38 38 37 36 38 42 45 45 44 42 41 41 41 40 40 40 40 40 39 38 37 36 35 34 33 32 29 27 26 26 25 25 24
8 8 11 14 11 15 19 15 12 12 11 13 13 11 11 10 9 9 8 9 9 8 12 16 12 9 8 7 10 16 18 17 15 16 18 18 19 21 22 23 24 25 26 26 27 29 32 35 36 36 37 38 38 38 38 38 38 39 42 45 46 44 43 42 41 41 40 40 39 39 39 38 37 36 36 35 34 34 33 30 28 27 26 26 26 25
11 7 2 4 5 11 18 18 16 14 10 11 12 12 12 11 9 8 7 9 9 7 9 12 9 6 4 2 3 9 15 20 20 19 18 18 18 19 21 22 23 24 25 26 27 29 32 34 35 35 36 37 37 38 39 39 40 42 43 46 46 44 43 42 42 41 40 39 38 38 37 36 36 35 35 34 34 34 33 31 29 27 26 26 26 26
8 7 2 4 4 10 15 16 18 16 10 8 12 13 12 12 11 9 9 9 8 9 8 8 9 8 6 5 7 10 11 14 19 21 23 24 23 21 20 21 23 24 25 26 28 30 32 33 34 35 36 36 37 39 41 42 44 45 46 46 46 44 43 43 43 42 40 39 38 38 37 36 35 35 34 33 33 32 32 31 29 27 26 26 27 27
4 7 5 6 9 10 7 10 15 18 14 8 10 12 11 13 12 9 8 8 9 10 7 9 12 11 8 7 9 15 17 16 16 18 20 25 28 26 23 22 23 24 25 26 28 30 32 33 35 36 36 37 40 42 44 45 45 45 46 47 46 45 44 44 43 42 41 40 39 38 37 36 35 35 34 32 32 31 31 31 29 28 27 26 27 27
3 8 9 10 12 8 5 9 13 17 20 16 10 10 11 12 11 10 9 9 10 10 8 10 13 11 9 7 5 11 17 18 17 17 17 20 23 27 28 26 25 24 24 25 27 29 30 33 35 36 36 37 39 41 42 43 43 43 45 46 45 44 43 43 43 42 41 41 40 39 38 37 36 35 34 33 32 31 31 31 30 29 28 27 27 27
4 7 7 7 9 7 6 10 11 13 18 18 14 11 11 11 10 10 9 8 9 9 8 10 11 9 9 10 8 8 11 14 15 15 16 17 20 24 27 28 28 27 26 25 25 27 29 32 35 36 37 37 38 39 39 40 41 42 43 44 44 43 43 43 43 42 42 41 40 39 38 37 36 35 34 33 32 32 31 31 31 30 29 28 28 27
4 6 6 6 8 7 7 10 13 13 14 15 14 13 11 10 10 11 10 10 9 9 7 7 8 7 6 8 11 9 8 10 12 12 13 15 20 23 24 26 27 28 29 27 26 27 29 32 34 36 37 36 36 36 36 38 39 40 40 42 43 43 43 43 43 43 43 42 41 40 39 38 36 35 34 33 32 32 32 32 32 31 29 28 28 28
4 5 8 9 7 8 11 13 15 14 11 10 12 15 15 12 11 12 12 13 11 9 8 7 6 4 3 4 8 9 9 10 11 12 12 14 19 21 22 24 25 26 27 28 29 29 29 32 34 35 35 34 34 35 36 37 38 38 39 40 41 41 42 43 43 45 44 43 42 41 40 38 37 35 34 33 33 33 32 32 32 31 30 29 28 27
4 5 8 10 9 10 15 14 12 12 11 9 9 13 16 15 13 13 13 13 12 11 10 8 8 4 3 3 4 5 6 7 10 12 12 15 18 20 21 23 24 25 26 27 28 29 29 31 33 33 33 34 35 37 38 38 38 39 40 40 39 41 43 42 42 44 45 44 43 42 40 39 38 36 35 34 33 33 32 32 31 31 30 29 28 27
2 5 8 9 9 11 17 19 16 14 12 10 10 11 13 16 17 12 9 8 10 13 12 8 8 7 3 3 3 3 5 6 7 8 9 11 14 17 21 23 24 25 26 26 26 27 28 28 29 30 32 35 37 37 37 38 38 39 39 38 39 40 42 41 40 41 44 44 43 41 41 40 38 37 35 34 34 33 32 31 30 31 30 29 27 27
3 5 6 8 9 9 11 14 14 13 10 9 12 14 13 15 15 10 6 5 7 13 15 11 9 7 4 5 6 6 9 10 9 9 9 10 11 12 13 17 21 24 25 25 25 25 26 26 27 30 33 36 37 36 37 38 38 37 38 39 40 39 39 39 38 39 41 43 42 41 41 40 39 38 36 34 34 33 32 30 29 30 31 29 28 27
5 5 5 6 9 9 8 6 7 8 6 8 15 18 14 13 14 11 8 8 9 12 14 12 9 7 5 6 7 7 10 11 8 7 6 5 6 5 2 4 9 13 16 17 19 21 22 24 27 31 35 38 38 37 37 39 38 37 38 39 39 37 38 39 38 38 39 41 41 41 41 41 40 39 37 35 34 32 31 30 29 29 31 31 29 28
5 6 8 10 12 11 8 6 7 8 7 8 12 14 12 12 13 11 9 10 11 10 12 12 10 9 7 6 6 7 6 4 1 3 4 5 5 3 3 2 2 6 9 12 14 17 19 22 25 29 34 37 37 37 38 39 38 37 38 38 37 36 37 38 38 38 39 40 40 41 41 40 40 39 38 36 35 33 31 30 30 29 30 31 30 29
5 7 11 13 16 18 18 16 14 13 13 12 11 11 10 9 10 13 13 14 13 9 11 14 13 13 12 6 1 0 2 5 6 6 7 7 7 6 5 2 1 5 7 10 14 17 20 23 25 28 33 34 34 34 35 36 37 37 37 38 37 36 37 38 38 39 39 39 40 41 41 40 40 39 39 37 36 35 32 31 30 29 30 31 31 29
6 8 10 13 16 20 22 21 17 14 14 15 14 14 13 9 10 14 15 18 18 12 11 12 10 13 15 7 4 7 8 8 7 7 8 8 9 9 8 5 3 2 4 8 14 19 22 25 27 30 34 34 33 33 33 33 35 35 35 36 36 36 36 37 38 38 39 40 41 41 41 40 39 39 39 39 38 37 35 34 33 32 31 32 32 30
6 7 9 12 15 18 21 22 20 17 17 17 16 16 16 13 13 13 13 16 19 16 14 11 9 9 6 3 8 9 11 10 8 9 10 11 12 13 12 10 9 7 5 3 8 16 22 25 28 31 35 35 34 35 34 33 34 35 35 36 37 37 37 37 38 39 40 41 43 43 41 40 40 39 39 39 39 38 36 36 35 34 34 34 32 30
6 6 8 9 11 13 17 20 20 19 18 17 17 17 17 15 15 15 14 15 17 18 17 15 15 10 2 9 11 11 11 11 10 12 12 13 15 16 16 15 14 13 12 10 8 9 16 22 27 30 34 37 38 37 36 35 35 36 36 36 38 38 38 38 40 41 42 42 42 43 41 40 40 39 39 39 39 38 37 36 36 35 35 34 33 31
7 7 7 8 9 10 13 17 20 19 18 19 19 18 17 16 14 10 8 9 11 14 16 15 15 10 4 11 11 9 8 9 10 12 14 15 17 18 18 18 18 18 17 15 14 12 13 17 24 28 33 38 39 38 38 37 36 36 36 36 38 38 38 38 39 42 43 42 41 42 42 41 40 39 39 39 39 38 36 36 36 36 35 35 33 33
7 7 6 7 8 9 11 15 16 15 15 16 15 15 16 16 10 5 4 4 4 6 10 11 8 4 8 10 9 8 8 7 9 11 13 15 17 18 18 19 20 20 20 19 18 17 17 17 20 27 32 36 38 39 40 40 39 39 39 38 38 37 37 37 38 40 42 41 41 43 42 41 40 39 39 39 38 37 36 36 36 36 35 35 34 33
9 8 7 6 6 8 11 13 11 12 13 10 8 11 18 18 11 9 8 7 3 1 3 3 2 7 10 9 9 9 9 9 9 7 9 13 15 18 19 20 21 22 22 21 20 20 20 19 20 25 30 33 36 38 39 39 39 38 37 35 35 36 37 36 36 38 42 43 42 43 42 40 40 40 39 39 38 37 37 37 36 36 35 35 34 34
10 9 7 6 6 7 10 10 9 11 10 4 2 3 11 14 13 12 8 4 2 1 2 2 3 7 9 10 11 11 11 12 8 3 10 13 15 18 20 21 22 23 23 23 22 22 22 22 21 24 28 31 33 34 35 35 35 34 33 34 35 36 37 37 36 37 41 43 42 42 41 40 40 40 39 39 39 38 38 37 36 36 36 35 35 35
11 9 7 6 6 6 7 8 8 5 3 0 5 9 5 6 13 12 7 5 3 2 1 2 4 7 10 13 13 12 12 12 8 4 13 18 17 18 21 23 24 24 24 24 24 24 25 24 22 23 27 29 30 31 34 35 34 33 33 34 34 35 36 37 37 37 40 43 42 41 40 39 39 40 40 39 39 38 38 37 37 37 36 35 34 34
13 10 7 6 6 6 6 8 8 7 6 3 3 8 8 2 2 2 2 4 3 4 3 3 5 8 12 14 15 15 14 11 11 3 15 24 22 20 21 23 24 24 24 24 25 24 24 22 21 21 24 26 28 31 33 34 33 33 33 32 33 34 36 36 38 40 42 42 41 39 38 38 39 39 39 39 39 39 38 38 37 36 36 35 34 33
15 11 8 7 7 6 7 7 8 10 9 4 2 8 12 11 11 11 5 3 3 5 5 4 6 9 11 14 17 17 11 10 11 1 18 28 26 24 23 22 21 22 24 25 24 23 21 17 17 19 21 25 28 31 31 32 32 32 32 33 33 34 35 37 40 43 43 41 39 38 38 38 38 38 39 39 39 39 38 37 37 36 35 34 34 33
16 11 8 7 6 6 7 6 6 8 4 3 7 10 14 16 15 12 7 4 2 5 6 6 7 9 11 13 16 15 6 7 5 6 22 30 29 28 28 26 22 23 24 23 21 21 18 14 14 17 20 24 28 30 31 32 33 33 33 34 33 34 35 38 41 43 41 39 38 38 37 37 37 38 38 39 39 38 37 37 35 34 34 33 33 33
13 9 7 8 8 8 8 6 6 6 1 8 11 13 16 17 13 7 6 5 4 4 6 8 8 9 12 13 13 10 5 2 5 13 24 30 29 28 29 27 24 24 23 21 20 19 14 11 12 17 20 24 28 29 31 32 33 34 35 34 33 34 36 39 40 40 39 38 37 37 37 36 36 37 37 38 37 37 36 35 34 34 34 33 33 33
8 7 6 8 9 9 9 7 7 6 2 9 14 14 13 12 7 4 3 1 4 4 6 9 9 10 12 12 10 8 7 9 12 18 24 28 29 29 29 27 23 20 18 18 17 16 11 8 12 17 19 24 28 29 31 33 33 34 35 36 35 35 36 37 38 38 38 38 37 36 35 35 34 35 35 36 35 35 35 34 34 34 34 33 32 32
6 6 6 8 9 7 8 7 7 5 3 13 17 12 8 5 3 0 3 3 4 6 6 8 9 11 11 11 10 10 12 14 16 19 22 26 28 29 30 28 25 20 16 13 12 11 8 6 10 15 18 22 28 30 31 33 34 35 37 38 38 37 35 33 34 37 37 36 35 35 34 33 33 33 33 33 33 33 33 33 33 32 32 31 30 30
1 3 5 6 6 6 7 6 6 4 6 16 16 9 7 5 3 6 8 4 4 7 7 7 9 11 12 12 12 14 16 17 18 21 23 26 28 29 30 30 28 24 17 12 11 9 6 3 6 11 17 21 24 27 28 31 34 37 38 39 38 34 31 32 34 35 35 34 34 34 33 32 32 32 31 31 31 31 32 32 32 32 32 31 30 28
3 2 3 1 1 3 5 4 3 4 10 16 12 4 4 4 6 11 12 8 6 7 9 9 9 10 12 13 14 16 17 18 21 23 24 27 29 31 30 30 29 26 21 16 11 6 2 2 3 5 12 19 22 23 25 29 34 38 38 36 35 32 30 32 34 33 34 33 32 32 32 30 30 29 28 29 29 30 31 32 32 31 29 29 29 28
5 6 4 2 3 2 2 2 5 8 12 13 8 5 5 7 11 15 14 11 9 9 10 12 12 12 13 14 15 17 17 19 23 24 24 27 30 32 32 31 30 28 25 20 13 8 5 1 4 4 8 14 19 21 22 25 30 35 35 32 32 32 30 31 33 33 33 32 31 31 30 28 27 26 27 27 28 29 29 30 31 30 27 25 25 24
6 9 5 4 4 3 3 3 8 13 14 9 7 10 11 12 15 18 16 14 13 11 11 13 13 13 13 13 15 17 19 21 25 25 25 27 30 33 33 32 30 28 26 23 18 14 9 3 3 6 7 10 13 15 17 19 23 29 31 29 30 31 30 30 32 31 30 29 29 28 28 27 26 25 25 26 26 27 27 28 29 29 27 24 22 20
8 11 6 4 6 6 2 3 11 18 15 6 6 13 16 15 17 19 18 16 15 14 14 14 13 13 12 11 13 17 20 22 24 26 26 27 30 33 34 32 31 28 26 24 22 18 14 9 5 6 8 9 10 10 12 14 16 21 27 28 28 29 30 31 31 29 28 28 27 27 27 28 27 25 25 26 26 25 25 26 27 27 27 27 24 22
8 11 8 6 8 6 2 7 18 20 10 2 8 16 19 19 20 21 20 18 17 16 14 13 13 12 12 12 13 16 20 21 22 26 27 27 29 31 33 32 30 28 26 24 23 22 18 14 10 8 8 9 10 10 11 12 14 16 22 27 27 27 29 31 30 28 27 27 27 28 28 28 27 26 25 24 25 25 24 25 26 26 27 28 26 24
8 9 8 7 8 6 4 10 20 16 5 5 15 19 18 21 22 22 21 19 17 16 14 13 13 12 12 13 13 15 19 21 22 25 26 26 27 30 31 31 29 28 27 23 22 23 22 19 16 13 10 9 8 8 9 11 13 14 19 24 26 26 27 29 28 26 25 25 25 25 25 26 25 25 24 22 23 26 26 26 26 26 25 25 25 25
8 8 8 8 7 6 7 12 17 12 6 12 21 20 19 21 22 20 21 20 18 17 16 15 15 14 11 11 11 13 16 19 21 24 25 25 26 28 29 30 29 29 27 21 19 23 25 23 22 19 17 14 10 9 8 8 10 11 14 17 20 22 24 24 25 24 22 22 21 20 22 23 22 22 23 21 22 26 29 29 27 27 25 24 25 25
10 8 9 8 6 8 12 17 17 13 12 15 19 20 20 21 20 20 22 21 20 19 17 16 17 16 12 10 11 11 14 17 19 22 24 24 24 26 26 27 29 30 28 22 19 20 23 24 24 23 21 18 15 13 11 10 9 8 8 11 12 15 17 18 20 22 19 17 18 19 21 22 22 23 24 23 22 26 29 29 28 28 27 26 25 24
Wind_Direction
186 197 205 210 212 208 209 215 224 231 247 250 236 227 230 229 223 220 217 199 196 218 220 220 229 228 224 218 200 194 195 200 204 202 197 194 193 192 192 192 192 193 192 190 189 190 190 190 191 190 191 192 194 197 202 205 204 201 201 199 198 198 198 199 198 197 197 195 193 192 194 196 197 199 200 200 198 195 201 204 197 195 197 195 194 195
190 211 214 213 217 215 213 214 223 229 227 239 245 236 233 233 230 224 220 209 210 229 226 220 230 230 226 225 214 200 199 204 205 203 200 198 197 196 195 194 193 191 189 187 188 190 190 191 191 191 192 194 196 199 204 208 207 204 204 203 202 201 201 202 202 201 201 200 199 198 197 197 201 206 205 205 206 200 206 209 198 196 201 199 200 201
200 222 219 215 217 220 222 217 218 225 227 230 240 242 237 230 230 234 228 216 212 229 232 225 231 235 227 227 228 214 207 209 207 205 204 201 200 198 197 195 191 188 187 187 188 189 191 191 191 191 193 196 198 202 208 211 210 207 206 206 206 205 205 206 205 205 205 205 204 204 203 199 198 210 210 206 211 208 207 214 206 202 204 201 201 201
206 219 220 218 213 216 220 214 210 217 226 229 232 239 239 228 226 233 221 211 219 232 240 237 237 241 231 224 227 222 214 210 208 210 209 205 204 202 199 194 190 188 187 188 188 189 190 191 192 192 194 196 197 202 208 211 212 210 208 208 208 207 208 209 209 208 208 209 209 208 209 207 200 208 213 209 215 215 209 213 214 209 207 202 201 200
223 211 213 220 214 211 212 205 208 216 224 228 229 235 239 230 226 237 228 205 224 230 236 246 246 241 232 224 221 217 214 212 209 210 211 210 209 207 202 197 194 192 188 188 188 189 190 191 192 194 195 196 197 202 207 210 212 212 211 210 209 209 210 211 212 212 211 212 213 212 212 214 211 214 218 216 220 222 217 214 216 217 212 207 205 203
232 214 202 217 207 205 215 214 214 219 228 228 224 228 238 242 233 237 245 234 232 227 216 224 240 239 226 226 224 212 209 211 209 209 211 211 209 206 204 200 198 196 192 191 190 190 191 191 192 194 195 197 199 203 207 210 212 214 214 213 212 211 211 213 214 214 214 215 216 215 214 216 216 219 222 220 220 223 223 218 216 221 220 214 212 210
234 221 208 209 202 203 220 225 217 215 231 236 218 218 229 242 243 235 239 236 237 243 214 206 228 244 225 223 223 216 214 211 207 209 210 208 204 202 203 201 198 197 195 194 193 192 191 191 192 195 197 199 200 202 205 208 211 215 216 215 214 214 214 214 215 216 216 218 219 218 218 219 220 221 222 222 221 221 224 220 214 220 225 220 217 216
219 222 212 203 207 211 220 225 215 211 226 240 224 216 221 229 236 235 238 239 240 259 240 207 222 248 240 226 219 215 217 212 206 209 209 205 202 202 203 202 199 198 196 194 194 194 194 193 194 196 198 200 200 199 202 205 209 214 218 218 216 216 216 216 217 217 217 218 220 221 221 221 223 225 226 226 224 223 225 225 218 219 227 225 221 221
196 217 218 206 210 219 222 222 214 211 223 238 241 242 226 224 231 233 238 245 242 251 246 216 212 237 244 232 220 215 218 216 207 207 208 203 201 203 204 203 201 199 198 196 195 195 195 195 196 197 198 199 199 199 201 203 206 213 219 220 219 218 218 219 219 219 219 219 221 222 222 223 225 227 229 231 231 229 229 229 226 225 229 227 224 225
202 216 222 217 213 220 226 221 213 213 223 235 241 252 238 228 230 231 235 243 243 244 243 228 216 230 243 229 218 214 218 217 207 207 210 203 202 204 204 204 203 200 199 199 198 197 196 196 197 196 196 198 199 199 200 201 204 211 218 220 220 220 219 220 221 221 221 221 222 224 224 225 226 227 229 231 233 232 230 231 230 229 230 228 225 227
240 224 224 230 223 220 226 223 219 219 223 232 235 234 232 227 224 227 230 236 242 241 238 234 229 235 247 231 219 218 216 215 211 208 210 206 203 203 204 205 204 200 200 200 200 199 197 197 195 195 196 198 199 198 197 199 202 209 217 221 221 220 220 221 221 221 222 223 224 225 226 227 227 228 229 230 232 234 232 230 231 231 232 230 227 228
242 231 220 229 223 217 224 225 221 218 218 226 230 226 227 223 213 218 221 220 235 241 233 232 233 237 244 235 225 226 214 212 219 215 208 207 204 202 204 206 203 201 200 200 200 198 196 193 193 195 196 196 196 196 197 199 202 208 217 221 221 220 220 220 221 221 222 223 224 225 227 228 229 230 231 231 233 235 235 232 232 232 232 232 231 229
232 232 223 224 217 211 217 221 216 212 212 219 221 216 218 215 205 208 212 213 228 238 232 229 229 233 244 242 237 238 223 210 219 220 212 207 204 202 203 204 203 202 201 199 197 194 192 192 193 195 195 194 195 197 198 198 200 207 216 221 222 220 219 219 220 220 221 222 224 225 226 228 229 230 231 232 233 236 238 236 234 233 232 232 231 229
223 222 220 226 215 203 210 215 210 204 206 212 210 208 212 210 204 207 211 218 229 230 225 226 230 236 246 244 234 235 235 222 218 219 216 212 207 204 203 205 203 202 201 199 196 193 192 193 194 195 194 194 196 198 198 198 199 205 214 221 223 222 220 219 219 220 220 221 222 224 225 226 228 229 230 232 233 235 237 236 235 235 235 234 232 232
242 225 210 219 209 196 206 218 222 213 208 211 209 211 219 218 214 212 211 219 228 229 215 213 223 235 235 232 227 226 227 226 223 218 215 215 213 210 207 207 205 203 201 198 196 195 195 195 195 195 195 195 196 197 197 198 200 204 212 220 223 222 221 219 219 219 219 220 221 222 223 224 226 227 229 230 232 233 234 234 234 234 234 235 234 234
253 259 213 238 239 203 206 213 220 224 218 204 203 213 219 220 226 232 235 236 240 245 218 203 210 228 216 174 195 216 219 219 220 219 218 218 216 213 212 209 205 204 203 199 197 198 198 197 196 195 195 195 196 197 197 200 203 206 213 220 222 222 221 219 218 219 219 219 219 220 221 221 223 224 226 228 229 230 231 231 231 232 232 232 233 234
252 247 43 359 264 218 219 218 212 219 226 200 199 213 217 220 230 240 245 248 252 250 228 208 216 224 232 233 211 210 217 216 216 219 221 220 217 215 214 211 207 205 203 199 198 200 199 197 196 196 197 195 195 199 202 205 209 212 215 219 221 221 220 219 218 218 219 218 218 219 219 219 221 222 223 225 227 227 227 228 227 229 230 228 230 233
290 270 297 294 240 215 239 244 220 219 231 223 204 204 208 221 231 239 242 236 234 240 230 217 225 222 223 233 211 208 215 216 214 216 217 216 216 215 215 212 208 207 205 201 200 201 199 197 197 198 197 196 200 206 209 210 213 214 216 219 221 220 219 219 218 218 218 218 218 219 219 219 220 221 222 223 225 224 224 225 225 226 228 227 227 230
310 278 275 262 238 219 226 237 228 222 227 240 241 209 201 213 217 216 230 233 228 234 233 223 229 230 223 222 200 203 211 214 216 218 218 215 213 214 215 213 209 207 205 202 202 202 200 198 198 198 198 198 203 208 209 209 210 212 216 220 222 221 219 218 218 218 219 218 219 219 220 220 220 221 222 223 224 224 223 224 225 224 225 226 226 227
296 271 267 238 222 228 225 218 222 215 215 232 251 239 218 216 216 212 219 234 237 240 239 224 221 227 228 227 227 213 203 209 216 220 221 219 215 213 214 214 210 206 206 205 205 205 202 201 201 200 201 199 199 201 201 203 207 210 214 219 221 221 220 219 218 217 217 217 218 219 220 220 220 221 223 223 224 224 224 224 225 224 224 225 227 227
267 255 266 244 213 225 233 218 221 220 207 211 227 233 224 216 218 220 220 225 236 243 242 231 224 224 214 216 224 218 201 206 217 223 224 222 220 216 212 212 210 207 208 209 209 209 206 204 203 202 202 199 197 197 195 198 203 206 210 215 217 218 218 218 217 217 217 217 217 218 218 219 219 220 222 223 224 225 225 224 224 225 224 224 226 227
265 253 259 254 235 233 229 217 222 236 233 222 222 220 219 218 217 219 219 217 224 240 243 240 241 226 147 173 209 211 212 216 219 224 228 223 222 220 213 209 209 208 208 208 211 213 211 207 203 201 200 196 194 194 194 196 198 200 205 209 212 213 214 214 215 217 218 217 217 218 218 219 219 220 221 222 224 225 225 224 224 224 224 224 225 225
309 279 262 254 251 260 260 255 259 272 278 278 258 228 218 220 220 219 222 218 219 230 236 244 249 234 120 123 174 193 211 224 225 227 231 226 221 219 215 211 209 207 205 207 212 215 212 206 202 199 196 193 193 194 194 194 195 199 202 204 205 209 212 211 211 214 217 218 218 218 218 220 220 220 220 221 223 224 224 224 224 223 223 223 224 224
294 252 255 257 255 265 271 271 271 272 272 266 254 236 222 220 220 225 240 243 232 225 221 227 238 234 204 181 209 240 248 249 244 241 243 239 228 218 213 211 207 203 203 208 213 214 210 204 199 196 193 192 193 194 193 194 195 198 198 198 201 206 208 207 205 209 215 219 218 218 219 219 220 220 220 220 222 223 222 222 223 224 223 222 222 223
305 248 250 258 251 239 242 248 242 237 246 250 233 227 229 228 227 234 260 270 248 233 229 226 224 226 221 207 216 243 255 253 247 245 249 251 248 236 217 207 204 201 202 209 213 211 206 200 195 193 191 192 193 193 193 194 196 196 196 198 201 202 202 201 201 203 211 217 218 217 219 219 218 219 220 219 220 220 220 219 219 224 226 222 221 222
285 260 259 256 245 227 213 224 233 227 242 251 231 226 231 235 236 238 239 235 230 233 237 235 228 220 194 183 199 224 248 251 244 245 257 260 260 258 215 179 196 199 204 213 215 211 204 198 194 191 190 192 193 192 193 194 195 195 196 198 199 198 197 198 198 199 205 213 215 216 219 219 217 217 218 218 218 217 217 216 215 221 226 225 221 221
264 255 255 255 254 257 267 294 310 310 302 269 238 232 234 233 235 240 238 231 226 229 234 234 245 243 210 187 202 213 235 261 313 22 12 19 25 41 72 90 172 199 211 217 215 210 203 199 196 192 193 195 195 193 194 195 195 195 196 196 196 196 195 195 196 197 201 208 212 214 217 218 217 217 216 217 217 214 214 214 213 215 222 226 224 221
257 251 249 254 258 266 277 286 291 296 293 282 272 264 252 235 233 234 233 232 230 236 233 225 235 246 234 221 238 323 12 22 34 26 15 14 15 23 31 24 200 203 211 211 208 204 199 199 197 194 196 198 196 194 195 196 196 195 195 195 194 194 194 194 195 196 200 205 210 213 217 217 217 217 216 217 218 215 213 213 212 212 218 225 226 222
256 256 254 260 261 265 273 278 278 278 276 274 276 275 268 259 245 235 233 232 228 234 240 227 230 242 239 245 5 11 1 8 25 18 8 10 9 7 2 348 326 249 217 208 205 202 200 200 197 197 202 202 197 196 197 196 196 195 195 194 193 193 194 194 194 195 198 204 210 215 217 216 216 217 217 217 219 218 216 215 215 214 217 224 227 224
249 259 259 264 267 267 268 272 273 271 268 265 265 265 265 265 254 240 235 231 227 232 239 244 265 264 247 339 2 351 344 350 6 11 9 10 5 358 352 347 348 347 332 281 222 210 207 205 202 203 208 207 200 197 197 197 196 195 195 194 193 193 193 193 194 196 199 206 213 217 217 215 216 216 216 217 218 218 218 219 220 221 222 226 227 225
233 256 266 274 278 270 267 272 271 263 259 261 261 260 260 260 252 239 231 225 225 229 229 237 256 259 28 25 348 332 340 344 354 4 8 7 0 352 348 346 345 344 338 332 310 252 225 216 210 208 211 214 210 202 198 197 197 197 196 194 193 193 192 193 196 200 204 208 212 215 216 217 217 217 216 217 218 218 218 219 222 223 224 226 227 225
230 255 268 272 276 272 268 269 265 259 256 254 253 251 251 250 244 235 230 225 228 231 223 221 236 245 354 7 339 324 330 333 346 358 360 360 355 350 345 341 337 335 331 327 321 304 271 240 222 212 213 218 215 206 201 198 197 196 196 195 194 193 192 193 197 202 207 209 210 214 218 218 217 217 217 217 217 218 218 219 221 223 224 225 225 225
237 253 261 260 270 279 275 267 261 256 251 246 243 238 238 240 225 164 155 209 229 243 228 218 227 288 346 349 337 330 328 329 346 356 358 357 351 346 343 337 331 328 326 322 316 307 293 270 242 223 216 216 212 207 205 202 199 199 198 196 194 191 191 193 195 202 207 208 211 217 219 218 217 217 217 216 217 217 218 218 220 222 223 224 225 226
238 243 249 254 264 272 278 281 269 248 238 238 240 228 225 224 198 151 160 189 178 312 267 243 332 349 347 340 328 323 322 318 324 355 18 12 357 346 339 334 327 323 320 317 312 305 297 283 260 235 222 217 213 209 206 203 202 201 197 193 191 190 191 192 192 200 208 211 214 218 220 219 218 217 217 216 216 217 217 218 219 221 223 225 226 227
234 235 239 246 252 261 279 285 263 241 235 227 15 290 238 210 169 140 138 144 120 4 318 315 336 337 337 330 318 309 304 297 293 17 37 20 6 351 337 330 325 320 314 311 308 305 299 287 267 243 227 220 214 207 201 199 199 196 191 191 191 190 191 191 191 199 209 213 215 219 220 219 218 218 218 218 217 218 218 218 219 221 223 225 228 229
227 231 235 240 240 248 264 257 242 251 276 188 51 16 345 166 144 133 123 103 62 25 358 328 340 344 335 327 319 310 300 282 246 102 35 14 4 353 338 328 323 315 309 307 304 301 296 285 267 246 230 221 213 203 198 197 194 192 190 190 190 189 190 191 193 200 209 214 216 218 219 218 218 218 218 218 218 219 219 219 220 221 223 225 227 230
219 225 229 231 230 232 243 248 253 272 275 224 98 22 359 13 155 238 172 108 55 24 19 359 4 356 338 332 329 318 305 275 227 156 24 5 355 349 336 326 323 317 309 305 300 297 294 282 263 244 228 217 208 201 198 195 191 189 190 189 189 188 189 192 197 204 212 216 217 218 218 217 218 218 218 219 219 219 220 220 221 221 222 224 226 228
213 218 219 222 225 229 239 253 264 261 247 205 77 3 346 340 323 302 273 148 77 22 19 18 20 7 347 340 338 327 304 249 218 189 7 354 348 348 338 329 329 323 312 305 301 301 299 282 254 234 218 209 203 199 195 191 187 186 186 187 188 188 188 194 203 210 216 219 218 217 217 217 217 217 217 218 218 219 220 220 221 221 222 224 225 226
206 209 213 227 229 227 234 243 254 254 249 49 17 346 339 335 327 307 264 189 107 31 25 31 31 18 359 348 348 344 313 229 215 2 351 340 341 345 336 331 336 328 314 307 306 305 302 284 248 224 210 203 197 193 190 186 184 184 184 185 187 187 190 199 208 215 219 219 217 218 218 218 218 217 218 218 219 219 220 220 221 221 221 223 224 225
198 199 206 226 230 232 238 242 256 260 7 35 0 339 334 327 318 286 231 180 106 49 34 39 37 23 6 356 359 10 18 355 331 337 335 332 335 340 338 337 339 331 318 314 312 307 301 278 236 212 202 198 193 188 185 182 181 183 184 184 185 189 197 208 215 218 219 217 217 217 218 218 218 218 219 220 220 221 221 221 221 222 222 222 223 224
189 197 211 224 229 237 236 239 267 268 41 25 350 341 341 322 290 233 217 96 68 53 43 40 34 24 12 7 11 12 1 347 327 319 325 330 333 341 348 352 349 338 325 320 318 312 302 266 224 209 201 195 189 184 181 181 182 184 185 185 189 197 205 212 217 219 218 216 216 217 218 218 218 219 220 221 222 222 222 223 222 223 224 223 223 225
185 196 215 225 230 240 236 244 268 263 40 10 346 348 5 334 258 245 351 4 38 36 36 34 27 19 9 5 7 350 332 332 329 324 325 328 332 340 349 356 359 355 344 337 333 325 309 261 222 214 204 193 187 185 184 184 184 185 189 194 201 206 206 208 214 218 217 215 214 215 217 217 217 218 220 221 221 221 222 224 223 224 225 224 222 224
187 215 222 221 228 238 234 245 258 248 7 357 348 3 33 19 338 339 336 342 28 16 11 17 20 14 2 353 347 337 329 330 331 328 326 330 338 343 347 355 4 7 6 3 352 339 321 281 232 213 202 193 189 188 187 185 185 190 197 204 206 204 201 205 214 217 215 212 211 212 215 216 216 217 218 218 219 219 221 223 222 222 223 223 220 220
26 316 255 200 345 254 231 244 278 293 335 343 344 7 33 15 348 334 330 335 352 351 348 352 357 359 357 349 337 332 331 330 328 328 328 333 341 344 349 2 11 14 18 19 9 4 8 288 262 203 191 190 187 186 185 185 190 198 203 204 203 199 198 206 213 214 212 211 210 210 212 214 215 215 215 215 217 218 220 222 222 221 222 224 223 221
18 348 299 288 346 309 241 325 344 335 335 342 359 17 5 358 349 337 328 323 324 333 338 335 332 338 345 344 335 329 329 329 329 329 329 332 340 346 354 5 10 12 21 30 35 50 58 303 230 175 168 179 181 183 185 187 196 202 202 201 204 202 199 204 211 213 212 210 208 208 211 212 212 213 213 213 215 216 217 219 221 221 221 222 223 222
357 355 330 296 320 303 255 317 350 344 338 346 27 24 8 360 349 339 330 321 317 320 324 322 322 325 329 335 334 328 326 328 329 328 328 332 341 350 357 4 8 15 27 37 43 52 57 58 192 173 159 164 171 180 186 188 198 204 203 203 206 205 201 205 211 212 210 209 208 207 208 209 210 210 210 212 214 215 216 217 220 222 222 220 218 215
351 359 351 323 329 318 280 2 354 340 326 321 17 6 354 349 344 336 328 319 312 310 311 313 315 316 317 322 326 323 322 325 327 328 330 334 341 350 356 1 7 17 28 34 37 45 59 73 112 157 160 156 158 167 178 183 190 199 204 207 208 205 203 208 212 211 209 208 207 206 207 208 210 209 209 211 213 215 217 220 221 223 224 223 220 216
337 349 349 334 331 327 332 357 346 337 325 344 10 353 342 338 336 332 325 319 311 306 306 308 310 311 314 317 321 320 319 322 327 330 331 334 339 348 355 358 3 16 29 37 41 44 51 65 87 120 147 156 159 159 166 174 178 187 201 208 210 209 208 210 212 212 210 208 207 207 207 207 208 208 208 211 212 213 216 219 221 223 226 227 224 219
330 343 346 334 330 334 351 351 346 344 353 2 350 343 336 332 331 327 323 319 313 308 308 310 309 307 308 313 318 319 317 320 328 332 331 332 337 346 355 359 4 16 26 33 44 47 49 56 69 83 102 126 148 158 165 178 187 194 203 208 211 212 213 215 216 215 212 208 206 205 207 208 209 210 208 207 210 213 212 212 214 217 220 225 227 224
353 356 349 341 342 348 348 345 345 342 322 325 332 332 330 329 327 323 322 319 315 313 313 313 311 307 302 308 316 318 316 320 328 332 330 331 337 346 356 1 6 15 23 34 49 55 55 60 65 70 80 95 113 128 138 159 181 194 203 208 213 215 214 215 215 213 210 207 204 204 208 208 206 209 209 204 208 218 219 215 215 215 213 215 222 225
2 356 346 343 335 329 334 338 339 330 313 315 324 328 328 327 325 323 321 317 314 314 313 311 312 309 303 304 310 313 313 318 326 330 329 331 339 349 358 3 4 9 19 35 50 54 55 61 64 66 70 77 88 98 110 125 135 149 174 188 197 204 206 208 208 205 201 199 199 204 211 211 208 212 215 209 210 223 226 223 222 222 220 218 221 224